PTRZB SNBI-SSRS

Flight info

Callsign PTRZB
Flight time 0h 57m
Altitude 5500
Route DCT 0402S04428W 0333S04354W 0312S04323W 0301S04254W DCT
Aircraft C208/L-SDFGR/C

Departure

Time 2026-04-30 19:03
Airport Bacabal Airport (SNBI)

Arrival

Time 2026-04-30 20:00
Airport Barreirinhas National Airport (SSRS)
Time Latitude Longitude Altitude Speed Heading
2026-04-30 18:52 -4.23024 -44.82161 77 ft 0 kts 172°
2026-04-30 18:57 -4.23022 -44.82161 74 ft 4 kts 172°
2026-04-30 18:57 -4.23007 -44.82159 78 ft 2 kts 220°
2026-04-30 18:57 -4.23004 -44.82150 78 ft 2 kts 277°
2026-04-30 18:58 -4.23004 -44.82146 74 ft 0 kts 270°
2026-04-30 18:59 -4.23004 -44.82168 73 ft 8 kts 270°
2026-04-30 19:00 -4.22836 -44.82250 81 ft 12 kts 290°
2026-04-30 19:00 -4.22852 -44.82393 80 ft 25 kts 264°
2026-04-30 19:00 -4.22911 -44.82655 81 ft 10 kts 262°
2026-04-30 19:01 -4.22885 -44.82651 80 ft 0 kts 83°
2026-04-30 19:01 -4.22883 -44.82624 80 ft 7 kts 85°
2026-04-30 19:02 -4.22882 -44.82612 80 ft 0 kts 83°
2026-04-30 19:02 -4.22847 -44.82347 85 ft 82 kts 83°
2026-04-30 19:03 -4.22324 -44.80969 670 ft 118 kts 68°
2026-04-30 19:03 -4.21539 -44.79299 1303 ft 139 kts 68°
2026-04-30 19:04 -4.20698 -44.77515 1988 ft 142 kts 66°
2026-04-30 19:04 -4.19862 -44.75750 2658 ft 140 kts 67°
2026-04-30 19:05 -4.19042 -44.74016 3319 ft 138 kts 69°
2026-04-30 19:05 -4.18223 -44.72273 3988 ft 138 kts 68°
2026-04-30 19:06 -4.17401 -44.70544 4662 ft 136 kts 70°
2026-04-30 19:06 -4.16996 -44.69691 5003 ft 136 kts 70°
2026-04-30 19:06 -4.16160 -44.67914 5333 ft 155 kts 70°
2026-04-30 19:07 -4.15185 -44.65856 5335 ft 168 kts 70°
2026-04-30 19:07 -4.14682 -44.64796 5334 ft 169 kts 69°
2026-04-30 19:08 -4.13676 -44.62669 5332 ft 170 kts 70°
2026-04-30 19:08 -4.12659 -44.60521 5334 ft 171 kts 69°
2026-04-30 19:08 -4.12146 -44.59438 5338 ft 171 kts 69°
2026-04-30 19:09 -4.11132 -44.57290 5335 ft 172 kts 69°
2026-04-30 19:09 -4.10617 -44.56207 5336 ft 171 kts 69°
2026-04-30 19:09 -4.10105 -44.55128 5338 ft 172 kts 69°
2026-04-30 19:10 -4.09081 -44.52964 5330 ft 171 kts 69°
2026-04-30 19:10 -4.08065 -44.50816 5331 ft 171 kts 69°
2026-04-30 19:11 -4.07555 -44.49737 5329 ft 171 kts 69°
2026-04-30 19:11 -4.06540 -44.47594 5333 ft 170 kts 69°
2026-04-30 19:11 -4.06030 -44.46517 5331 ft 171 kts 69°
2026-04-30 19:12 -4.05522 -44.45443 5332 ft 170 kts 70°
2026-04-30 19:12 -4.05014 -44.44369 5335 ft 171 kts 69°
2026-04-30 19:12 -4.04504 -44.43293 5337 ft 171 kts 69°
2026-04-30 19:13 -4.03480 -44.41130 5342 ft 173 kts 69°
2026-04-30 19:13 -4.02445 -44.38946 5333 ft 173 kts 69°
2026-04-30 19:13 -4.01930 -44.37860 5330 ft 172 kts 69°
2026-04-30 19:14 -4.01417 -44.36775 5335 ft 172 kts 69°
2026-04-30 19:14 -4.00902 -44.35688 5334 ft 173 kts 69°
2026-04-30 19:14 -4.00384 -44.34593 5335 ft 174 kts 69°
2026-04-30 19:14 -3.99874 -44.33513 5332 ft 173 kts 69°
2026-04-30 19:15 -3.99354 -44.32421 5333 ft 172 kts 69°
2026-04-30 19:15 -3.98327 -44.30249 5334 ft 173 kts 69°
2026-04-30 19:15 -3.97801 -44.29163 5332 ft 173 kts 66°
2026-04-30 19:16 -3.97008 -44.28230 5324 ft 179 kts 47°
2026-04-30 19:16 -3.96104 -44.27380 5327 ft 178 kts 50°
2026-04-30 19:16 -3.94319 -44.25650 5328 ft 179 kts 49°
2026-04-30 19:17 -3.93430 -44.24795 5328 ft 179 kts 49°
2026-04-30 19:17 -3.91632 -44.23068 5326 ft 179 kts 49°
2026-04-30 19:17 -3.90737 -44.22208 5325 ft 178 kts 49°
2026-04-30 19:18 -3.89247 -44.20777 5325 ft 178 kts 49°
2026-04-30 19:18 -3.88046 -44.19621 5331 ft 179 kts 49°
2026-04-30 19:18 -3.87149 -44.18758 5327 ft 179 kts 49°
2026-04-30 19:19 -3.86253 -44.17899 5328 ft 178 kts 49°
2026-04-30 19:19 -3.85364 -44.17043 5327 ft 177 kts 49°
2026-04-30 19:19 -3.83594 -44.15342 5327 ft 178 kts 49°
2026-04-30 19:20 -3.82700 -44.14485 5326 ft 177 kts 49°
2026-04-30 19:20 -3.81808 -44.13627 5327 ft 178 kts 49°
2026-04-30 19:20 -3.80033 -44.11923 5330 ft 178 kts 49°
2026-04-30 19:21 -3.79140 -44.11062 5334 ft 179 kts 49°
2026-04-30 19:21 -3.77343 -44.09337 5335 ft 179 kts 49°
2026-04-30 19:22 -3.75551 -44.07615 5336 ft 178 kts 49°
2026-04-30 19:22 -3.72861 -44.05031 5335 ft 181 kts 49°
2026-04-30 19:23 -3.70151 -44.02428 5336 ft 179 kts 49°
2026-04-30 19:24 -3.68350 -44.00699 5340 ft 179 kts 50°
2026-04-30 19:24 -3.67447 -43.99832 5339 ft 179 kts 49°
2026-04-30 19:24 -3.65665 -43.98120 5337 ft 179 kts 49°
2026-04-30 19:25 -3.62964 -43.95527 5339 ft 179 kts 49°
2026-04-30 19:26 -3.61166 -43.93803 5337 ft 178 kts 50°
2026-04-30 19:26 -3.59375 -43.92078 5345 ft 179 kts 50°
2026-04-30 19:26 -3.58479 -43.91219 5345 ft 179 kts 49°
2026-04-30 19:27 -3.56685 -43.89498 5342 ft 179 kts 50°
2026-04-30 19:27 -3.55282 -43.87542 5344 ft 172 kts 67°
2026-04-30 19:28 -3.54694 -43.86492 5341 ft 172 kts 66°
2026-04-30 19:28 -3.53540 -43.84406 5342 ft 172 kts 66°
2026-04-30 19:29 -3.52387 -43.82301 5340 ft 172 kts 66°
2026-04-30 19:29 -3.51810 -43.81250 5338 ft 172 kts 66°
2026-04-30 19:30 -3.50073 -43.78092 5345 ft 172 kts 66°
2026-04-30 19:30 -3.48918 -43.75988 5342 ft 172 kts 66°
2026-04-30 19:31 -3.47763 -43.73888 5345 ft 172 kts 66°
2026-04-30 19:31 -3.47185 -43.72836 5344 ft 172 kts 66°
2026-04-30 19:31 -3.46038 -43.70746 5343 ft 172 kts 67°
2026-04-30 19:32 -3.45458 -43.69694 5347 ft 173 kts 66°
2026-04-30 19:32 -3.44879 -43.68638 5345 ft 173 kts 66°
2026-04-30 19:32 -3.44299 -43.67585 5348 ft 173 kts 66°
2026-04-30 19:32 -3.43718 -43.66527 5346 ft 173 kts 66°
2026-04-30 19:33 -3.43134 -43.65466 5351 ft 173 kts 66°
2026-04-30 19:33 -3.42553 -43.64405 5350 ft 173 kts 66°
2026-04-30 19:33 -3.41971 -43.63349 5346 ft 174 kts 66°
2026-04-30 19:33 -3.41388 -43.62287 5351 ft 174 kts 66°
2026-04-30 19:34 -3.40812 -43.61241 5346 ft 173 kts 66°
2026-04-30 19:34 -3.40231 -43.60183 5348 ft 174 kts 66°
2026-04-30 19:34 -3.39067 -43.58066 5344 ft 174 kts 66°
2026-04-30 19:35 -3.38483 -43.57004 5347 ft 174 kts 66°
2026-04-30 19:35 -3.37900 -43.55944 5345 ft 173 kts 66°
2026-04-30 19:35 -3.37319 -43.54886 5348 ft 174 kts 66°
2026-04-30 19:35 -3.36737 -43.53828 5345 ft 173 kts 66°
2026-04-30 19:36 -3.36156 -43.52770 5350 ft 173 kts 66°
2026-04-30 19:36 -3.35572 -43.51708 5352 ft 174 kts 66°
2026-04-30 19:36 -3.34403 -43.49583 5355 ft 173 kts 66°
2026-04-30 19:37 -3.33828 -43.48539 5353 ft 173 kts 66°
2026-04-30 19:37 -3.33247 -43.47480 5350 ft 173 kts 66°
2026-04-30 19:37 -3.32666 -43.46423 5355 ft 174 kts 66°
2026-04-30 19:37 -3.32081 -43.45360 5353 ft 174 kts 66°
2026-04-30 19:38 -3.31495 -43.44294 5351 ft 174 kts 66°
2026-04-30 19:38 -3.30916 -43.43227 5350 ft 173 kts 68°
2026-04-30 19:38 -3.30373 -43.42149 5351 ft 173 kts 67°
2026-04-30 19:38 -3.29814 -43.41075 5352 ft 174 kts 67°
2026-04-30 19:39 -3.29264 -43.40009 5354 ft 174 kts 67°
2026-04-30 19:39 -3.28707 -43.38931 5356 ft 174 kts 67°
2026-04-30 19:39 -3.28151 -43.37850 5354 ft 174 kts 67°
2026-04-30 19:39 -3.27596 -43.36771 5354 ft 174 kts 68°
2026-04-30 19:40 -3.27046 -43.35703 5360 ft 174 kts 67°
2026-04-30 19:40 -3.26482 -43.34603 5361 ft 176 kts 67°
2026-04-30 19:40 -3.25928 -43.33526 5364 ft 177 kts 67°
2026-04-30 19:40 -3.25363 -43.32432 5361 ft 176 kts 67°
2026-04-30 19:41 -3.24803 -43.31345 5359 ft 174 kts 67°
2026-04-30 19:41 -3.24249 -43.30266 5361 ft 174 kts 67°
2026-04-30 19:41 -3.23696 -43.29190 5354 ft 173 kts 67°
2026-04-30 19:41 -3.23144 -43.28118 5359 ft 173 kts 67°
2026-04-30 19:42 -3.22592 -43.27046 5355 ft 174 kts 67°
2026-04-30 19:42 -3.22039 -43.25970 5356 ft 174 kts 67°
2026-04-30 19:42 -3.21483 -43.24889 5358 ft 174 kts 66°
2026-04-30 19:42 -3.20934 -43.23825 5363 ft 175 kts 67°
2026-04-30 19:43 -3.20377 -43.22740 5357 ft 175 kts 66°
2026-04-30 19:43 -3.19820 -43.21659 5361 ft 174 kts 66°
2026-04-30 19:43 -3.19265 -43.20579 5360 ft 174 kts 66°
2026-04-30 19:44 -3.18154 -43.18422 5358 ft 174 kts 67°
2026-04-30 19:44 -3.17598 -43.17342 5363 ft 174 kts 66°
2026-04-30 19:44 -3.17043 -43.16262 5360 ft 175 kts 67°
2026-04-30 19:44 -3.16490 -43.15188 5359 ft 175 kts 67°
2026-04-30 19:45 -3.15924 -43.14091 5362 ft 176 kts 67°
2026-04-30 19:45 -3.15371 -43.13015 5364 ft 175 kts 67°
2026-04-30 19:45 -3.14809 -43.11925 5364 ft 176 kts 67°
2026-04-30 19:45 -3.14249 -43.10835 5364 ft 176 kts 67°
2026-04-30 19:46 -3.13686 -43.09743 5363 ft 176 kts 66°
2026-04-30 19:46 -3.13134 -43.08672 5362 ft 175 kts 68°
2026-04-30 19:46 -3.12577 -43.07587 5365 ft 175 kts 67°
2026-04-30 19:46 -3.12019 -43.06504 5364 ft 175 kts 67°
2026-04-30 19:47 -3.11462 -43.05424 5362 ft 175 kts 67°
2026-04-30 19:47 -3.11094 -43.04707 5362 ft 175 kts 67°
2026-04-30 19:47 -3.10535 -43.03624 5360 ft 174 kts 67°
2026-04-30 19:47 -3.09981 -43.02547 5356 ft 174 kts 67°
2026-04-30 19:48 -3.09246 -43.01119 5371 ft 174 kts 67°
2026-04-30 19:48 -3.08693 -43.00044 5368 ft 174 kts 67°
2026-04-30 19:48 -3.08318 -42.99317 5368 ft 174 kts 67°
2026-04-30 19:48 -3.07771 -42.98256 5368 ft 174 kts 67°
2026-04-30 19:49 -3.07214 -42.97174 5370 ft 174 kts 66°
2026-04-30 19:49 -3.05725 -42.95276 5365 ft 181 kts 37°
2026-04-30 19:49 -3.04643 -42.94660 5370 ft 181 kts 34°
2026-04-30 19:50 -3.03550 -42.94025 5369 ft 181 kts 34°
2026-04-30 19:50 -3.02455 -42.93390 5371 ft 182 kts 34°
2026-04-30 19:50 -3.01360 -42.92757 5376 ft 182 kts 34°
2026-04-30 19:50 -3.00262 -42.92122 5372 ft 182 kts 34°
2026-04-30 19:51 -2.99163 -42.91488 5376 ft 182 kts 34°
2026-04-30 19:51 -2.98075 -42.90858 5376 ft 183 kts 34°
2026-04-30 19:51 -2.96972 -42.90221 5376 ft 183 kts 34°
2026-04-30 19:51 -2.95871 -42.89584 5373 ft 182 kts 34°
2026-04-30 19:52 -2.94772 -42.88949 5372 ft 182 kts 34°
2026-04-30 19:52 -2.93676 -42.88315 5373 ft 182 kts 34°
2026-04-30 19:52 -2.92596 -42.87690 5376 ft 182 kts 34°
2026-04-30 19:52 -2.91499 -42.87057 5375 ft 182 kts 34°
2026-04-30 19:53 -2.90401 -42.86422 5375 ft 181 kts 34°
2026-04-30 19:53 -2.89309 -42.85791 5378 ft 181 kts 34°
2026-04-30 19:53 -2.88232 -42.85169 5180 ft 179 kts 34°
2026-04-30 19:53 -2.87147 -42.84541 4796 ft 181 kts 34°
2026-04-30 19:54 -2.86073 -42.83920 4416 ft 176 kts 34°
2026-04-30 19:54 -2.85026 -42.83318 4021 ft 171 kts 34°
2026-04-30 19:54 -2.83999 -42.82724 3631 ft 169 kts 35°
2026-04-30 19:54 -2.82987 -42.82141 3250 ft 166 kts 36°
2026-04-30 19:55 -2.82045 -42.81597 2928 ft 147 kts 37°
2026-04-30 19:55 -2.81176 -42.81093 2551 ft 141 kts 35°
2026-04-30 19:55 -2.80333 -42.80620 2162 ft 137 kts 29°
2026-04-30 19:55 -2.79424 -42.80470 1764 ft 129 kts
2026-04-30 19:56 -2.78594 -42.80729 1366 ft 124 kts 336°
2026-04-30 19:56 -2.77973 -42.81319 958 ft 124 kts 307°
2026-04-30 19:56 -2.77696 -42.82058 860 ft 105 kts 283°
2026-04-30 19:56 -2.77672 -42.82740 867 ft 96 kts 272°
2026-04-30 19:57 -2.77659 -42.83387 870 ft 92 kts 274°
2026-04-30 19:57 -2.77642 -42.84117 897 ft 117 kts 275°
2026-04-30 19:57 -2.77597 -42.85008 904 ft 136 kts 281°
2026-04-30 19:57 -2.77099 -42.85738 885 ft 123 kts 339°
2026-04-30 19:58 -2.76308 -42.85786 754 ft 115 kts 20°
2026-04-30 19:58 -2.75707 -42.85304 522 ft 117 kts 58°
2026-04-30 19:58 -2.75567 -42.84483 282 ft 120 kts 94°
2026-04-30 19:58 -2.75605 -42.83716 279 ft 103 kts 91°
2026-04-30 19:59 -2.75618 -42.83008 270 ft 100 kts 90°
2026-04-30 19:59 -2.75636 -42.82314 290 ft 104 kts 89°
2026-04-30 19:59 -2.75655 -42.80978 128 ft 74 kts 86°
2026-04-30 20:00 -2.75664 -42.80551 41 ft 52 kts 86°
2026-04-30 20:00 -2.75676 -42.80374 39 ft 11 kts 108°
2026-04-30 20:00 -2.75665 -42.80358 39 ft 7 kts 353°
2026-04-30 20:00 -2.75657 -42.80463 40 ft 20 kts 265°
2026-04-30 20:01 -2.75771 -42.80578 40 ft 16 kts 180°
2026-04-30 20:01 -2.75868 -42.80579 41 ft 10 kts 178°
2026-04-30 20:01 -2.75913 -42.80545 41 ft 7 kts 147°
2026-04-30 20:02 -2.75961 -42.80541 41 ft 0 kts 180°